Tracking 32139 objects as of 17-Nov-2025
HD Live streaming from Space Station
objects crossing your sky now

STARLINK-34912

Track STARLINK-34912 now!
10-day predictions
STARLINK-34912 is classified as:


NORAD ID: 65378
Int'l Code: 2025-190AD
Perigee: 481.6 km
Apogee: 483.0 km
Inclination: 53.2 °
Period: 94.1 minutes
Semi major axis: 6853 km
RCS: Unknown
Launch date: August 28, 2025
Source: United States (US)
Launch site: AIR FORCE EASTERN TEST RANGE (AFETR)
Your satellite tracking list
Your tracking list is empty




NASA's NSSDC Master Catalog

Two Line Element Set (TLE):
1 65378U 25190AD  25320.59108655  .00040992  00000-0  13882-2 0  9995
2 65378  53.1601 333.1905 0001034  82.6403 277.4715 15.30207075 12446
Source of the keplerian elements: AFSPC